COSMOS 1275 DEB, 12676

Orbit data source: Space-Track

COSMOS 1275 DEB, 12676 is space debris in LEO originally from a launch on Thu, 04 Jun 1981 UTC launched from the Plesetsk Missile And Space Complex (PKMTR). Debris objects in space refer to the collection of defunct objects orbiting the Earth. Examples of debris include non-operational satellites, rocket bodies, and fragments generated from explosions, collisions, or faulty payload assembly.

Loading next visibility...
Identifier
12676, 1981-053AG
Orbit
LEO
Last TLE update
8 hours ago
Origin
Manufacturer
Unknown
Mission
Spacecraft
Bus & Motor
Unknown
Mass
Unknown
Launch date (UTC)
1981-06-04 (44 years ago)
Launch vehicle
Unknown
Launch site
Plesetsk Missile And Space Complex (PKMTR)
Object type
Payload
Rocket body
Debris
Shape & HBR
Unknown
Radar Cross Section
Medium (>0.1 m² and <1 m²)

Expand to show TLE details & history

TLE from 8 hours ago
0 COSMOS 1275 DEB
1 12676U 81053AG  25186.59711369  .00000375  00000-0  30840-3 0  9995
2 12676  82.9439  22.3328 0044454   7.2853  66.8610 13.86424448212696
Epoch: 2025-07-05T14:19Z
TLE epoch observation values (Epoch: 2025-07-05T14:19:50.622Z)
Latitude
73.1764°
Longitude
-92.43025°
Altitude
941.112 km
Speed
7.394 km/s
True Right ascension
03h 05m 27s
True Declination
73° 04' 60"
Sunlit
Object was in daylight at epoch
Visualization orbit readout
Latitude
-57.26967°
Longitude
-127.75832°
Altitude
949.021 km
Speed
7.384 km/s
Apparent Right ascension
23h 22m 59s
Apparent Declination
-50° 28' 33"
Sunlit
Object is in daylight
Visualization observer readout
Local Sidereal Time
10:17:42
Azimuth
221.844° SW
Elevation
-74.45°
Doppler factor
1
Orbital elements
Apogee altitude
970.846 km
Perigee altitude
905.796 km
Semi-major axis
7,316.458 km
Eccentricity
0.00445
Inclination
82.9439°
RAAN
22.3328°
Arg. of periapsis
7.2853°
True anomaly
Unknown
Mean anomaly
66.861°
Eccentric anomaly
Unknown
Mean motion
3.4681 °/min
Orbital period
103.8 mins
BSTAR
0.0003084
Loading maneuver chart data...
Loading SW <> Apogee altitude chart data...
Loading historical data...
Loading historical data...
Loading historical data...
Loading historical data...
Loading historical data...
Loading historical data...
Loading historical data...

COSMOS 1275 DEB Visibility forecast

Observer location: undefined°, undefined°

Span
Click to sort rows by Start time (UTC) header in descending order
Start Az.
Max El. time (UTC)
Max El. Az.
Max El.
End time (UTC)
End Az.
10 mins2025-07-06 00:57:31.367Z355.892° N2025-07-06 01:02:31.367Z132.249° SE44.377°2025-07-06 01:07:31.367Z170.716° S
4 mins2025-07-06 02:44:31.367Z294.67° NW2025-07-06 02:45:31.367Z284.417° WNW12.982°2025-07-06 02:48:31.367Z254.499° W
6 mins2025-07-06 12:38:31.367Z116.993° SE2025-07-06 12:40:31.367Z91.16° ESE20.896°2025-07-06 12:44:31.367Z41.936° NE
9 mins2025-07-06 14:21:31.367Z217.36° SW2025-07-06 14:25:31.367Z291.591° WNW35.988°2025-07-06 14:30:31.367Z354.033° N
|